Temperature
16 16 16 16 16 16 16 16 16 16 16 16 15 15 15 15 15 16 15 15 16 16 16 15 15 15 15 15 15 15 15 15 15 15 15 15 15 15 15 15 15 15 15
16 16 16 16 16 16 16 16 16 16 15 15 15 15 15 15 15 15 15 15 15 15 15 15 15 15 15 15 15 15 15 15 15 15 15 15 15 15 15 15 15 15 15
16 16 16 16 16 16 16 15 15 15 15 15 15 15 15 15 15 15 15 15 15 15 15 15 15 15 15 15 15 15 15 15 15 15 15 15 15 15 15 15 15 15 15
16 16 16 16 16 15 15 15 15 15 15 15 15 15 15 15 15 15 15 15 15 15 15 15 15 15 15 15 15 15 15 15 15 15 14 14 14 14 14 14 14 14 14
16 16 16 15 15 15 15 15 15 15 15 15 15 15 15 15 15 15 15 15 15 15 15 15 15 15 15 15 15 14 14 14 14 14 14 14 14 14 14 14 14 14 14
16 16 15 15 15 15 15 15 15 15 15 15 15 15 15 15 15 14 14 14 14 14 14 14 14 14 14 14 15 14 14 14 14 14 14 14 14 14 14 14 14 14 14
15 15 15 15 15 15 15 15 15 15 15 15 15 14 14 14 15 14 14 14 14 14 14 14 14 14 14 14 14 14 14 14 14 13 13 13 13 14 13 13 13 14 14
15 15 15 15 15 15 14 14 14 14 14 14 15 15 14 14 14 14 14 14 14 14 14 14 14 14 14 14 14 14 14 14 13 13 13 13 13 13 13 13 13 13 13
15 15 15 15 15 15 14 14 14 14 14 14 14 14 14 14 14 14 14 14 14 14 14 14 13 13 13 13 13 13 13 13 13 13 13 13 13 13 13 13 13 13 13
15 15 15 15 14 14 14 14 14 14 14 14 14 14 14 15 14 14 14 14 14 14 14 13 13 13 13 13 13 13 13 13 13 13 13 13 13 13 13 13 13 13 12
15 15 15 14 14 14 14 14 14 14 14 14 14 14 14 14 15 14 13 13 13 13 13 13 13 13 13 13 13 13 13 13 13 13 13 13 13 13 13 12 12 12 12
15 15 15 14 14 14 14 14 14 14 14 14 14 14 14 14 14 14 14 13 13 13 13 13 13 13 13 13 13 13 13 13 13 13 13 13 13 12 12 12 12 12 12
15 15 14 14 14 14 14 14 14 14 14 14 14 14 14 14 14 14 14 13 13 13 13 13 13 13 13 13 13 13 12 12 12 12 12 12 12 12 12 12 12 12 12
15 14 14 14 14 14 14 14 13 13 13 13 13 13 13 13 14 14 14 13 13 13 13 13 13 13 13 13 12 12 12 12 12 12 12 12 12 12 12 12 12 12 11
15 15 14 14 14 14 14 14 13 13 13 13 13 13 13 13 13 13 13 13 13 13 12 12 12 12 12 12 12 12 12 12 12 12 12 12 12 12 12 12 11 11 11
15 15 14 14 14 14 14 13 13 13 13 13 13 13 13 13 13 13 13 13 13 13 13 12 12 12 12 12 12 12 12 12 12 11 11 12 12 12 12 11 11 11 11
15 15 14 14 14 14 14 13 13 13 13 13 13 13 13 13 13 13 13 12 13 13 13 12 12 12 12 12 12 11 11 11 11 11 11 11 11 11 11 11 11 11 11
15 14 14 14 14 14 13 13 13 13 13 13 13 13 13 13 13 12 12 12 12 12 12 12 12 12 12 11 11 11 11 11 11 11 11 11 11 11 11 11 11 11 11
14 14 14 14 14 14 13 13 13 13 13 13 13 13 13 13 12 12 12 12 12 12 12 12 12 12 11 11 11 11 11 11 11 11 11 11 11 11 11 11 11 11 11
14 14 14 14 14 13 13 13 13 13 13 13 13 13 13 12 12 12 12 12 12 12 12 12 12 11 11 11 11 11 11 10 10 10 10 11 11 10 10 11 11 11 10
14 14 14 13 13 13 13 13 13 13 13 13 13 13 12 12 12 12 12 12 12 12 11 11 11 11 11 11 11 11 10 10 10 10 10 10 10 10 10 10 10 10 10
14 13 13 13 13 13 13 13 13 13 12 12 12 12 12 12 12 12 12 12 12 11 11 11 11 11 11 11 11 10 10 10 10 10 10 10 10 10 10 10 10 10 10
13 13 13 13 13 13 13 13 12 12 12 12 12 12 12 12 12 12 11 11 11 11 11 11 11 11 11 11 10 10 10 10 10 10 10 10 10 10 10 10 10 10 10
13 13 13 13 13 13 12 12 12 12 12 12 12 12 12 12 11 11 11 11 11 11 11 11 11 10 10 10 10 10 10 10 10 10 9 9 10 10 10 10 10 10 10
13 13 13 12 12 12 12 12 12 12 12 11 11 11 11 11 11 11 11 11 11 11 10 10 10 10 10 10 10 10 9 9 9 9 9 9 9 9 9 9 9 9 9
13 12 12 12 12 12 12 12 12 11 11 11 11 11 11 11 11 11 11 10 10 10 10 10 10 10 10 10 9 9 9 9 9 9 9 9 9 9 8 9 9 9 9
Wind_Speed
3 3 3 3 4 4 4 3 4 5 5 7 8 7 6 8 9 9 10 13 12 12 12 12 12 11 11 11 11 10 9 9 9 8 8 8 8 8 8 7 7 8 7
3 3 3 3 3 4 4 4 5 5 5 5 6 6 6 7 8 9 9 10 11 11 11 11 11 11 11 10 9 9 9 9 8 8 8 8 8 8 8 8 8 8 7
4 4 3 2 3 4 4 4 5 5 4 4 4 4 5 5 6 7 7 8 9 10 11 11 10 10 10 9 9 9 9 8 8 8 8 8 8 8 8 8 8 8 8
6 4 3 2 4 4 3 3 4 4 4 4 3 3 3 3 4 6 6 7 7 8 9 10 9 10 9 9 9 9 9 8 8 7 8 8 8 8 8 8 9 9 9
6 5 2 2 4 3 2 3 3 4 4 3 3 3 2 2 2 4 4 6 7 8 8 8 9 9 9 9 8 8 8 8 8 8 8 8 8 8 8 8 9 9 9
7 4 2 3 4 3 3 3 3 3 3 2 3 3 2 2 2 2 3 4 5 7 7 8 8 8 9 9 8 8 7 8 8 7 7 7 7 7 7 7 8 8 7
5 4 3 3 3 2 2 3 3 3 2 2 2 2 1 1 2 1 2 2 3 5 5 6 7 7 7 7 8 8 7 7 7 7 7 7 7 7 7 7 7 7 7
4 4 3 3 3 2 3 3 3 2 1 1 1 2 1 1 2 1 1 2 2 3 3 4 6 7 7 7 7 7 7 6 6 7 7 7 7 7 6 6 7 7 6
3 3 3 3 3 3 2 2 2 2 1 1 1 1 2 1 0 1 1 1 2 1 1 2 5 6 7 8 7 7 7 6 6 6 6 6 6 7 6 5 6 6 6
3 3 2 2 2 3 3 2 2 1 1 0 1 1 0 2 2 1 1 1 1 2 1 2 3 6 7 8 7 7 6 6 5 5 5 5 5 5 6 6 6 6 6
3 3 2 2 2 2 3 2 2 1 1 1 0 1 1 0 1 2 1 1 0 0 1 2 2 4 6 6 7 6 6 5 5 4 4 3 3 3 4 5 5 5 5
2 3 3 2 2 2 2 2 2 1 1 1 1 0 0 0 0 1 1 2 1 1 1 1 2 2 4 5 5 5 6 5 4 4 4 4 3 3 3 3 3 3 4
2 3 3 2 2 2 2 2 2 2 2 1 1 0 0 1 0 0 1 1 1 1 1 1 1 3 4 5 4 5 5 5 4 4 3 3 3 3 2 2 2 2 3
3 4 3 3 3 3 2 2 2 2 2 2 1 1 0 1 1 1 1 1 1 1 1 2 1 2 4 5 4 6 5 5 5 5 4 3 2 1 1 1 1 1 1
3 4 4 4 4 3 3 3 2 2 1 1 1 1 1 1 0 0 0 1 2 1 1 2 1 2 4 5 5 6 6 6 6 5 4 4 3 2 1 1 1 1 0
3 4 4 4 4 4 4 3 2 2 2 1 1 1 1 1 1 0 0 1 1 2 1 1 1 2 3 4 5 6 7 8 7 6 5 4 4 4 3 2 2 2 1
4 4 4 4 4 4 4 4 4 3 3 3 3 3 3 2 1 1 1 0 1 0 2 1 1 2 2 2 2 4 7 7 7 7 6 5 5 5 5 4 3 2 1
3 3 4 4 4 4 4 5 5 4 4 4 4 3 4 3 2 1 1 1 1 1 2 2 1 1 2 3 3 3 4 6 7 8 8 7 6 6 6 5 4 3 3
3 3 3 4 3 3 4 4 5 6 5 5 4 4 4 4 4 3 2 2 1 1 1 2 2 1 1 2 2 2 2 2 5 7 8 8 8 7 7 6 6 5 4
2 2 2 2 3 3 3 3 4 4 4 5 5 4 3 4 5 4 3 3 2 1 1 1 1 2 2 2 2 2 2 2 2 4 4 6 8 9 8 8 7 6 6
3 3 3 3 3 3 3 3 3 3 3 3 3 3 3 2 3 3 2 2 2 1 1 1 2 1 2 2 2 2 2 2 2 2 2 3 5 6 7 8 8 7 7
3 2 2 3 2 2 2 3 2 3 3 3 2 2 2 3 3 3 3 3 4 3 3 2 2 3 3 2 2 2 1 1 2 1 2 3 3 3 5 7 8 8 8
3 3 3 2 2 2 4 4 4 2 2 3 3 3 2 3 3 3 4 4 3 4 5 4 4 4 3 2 2 2 2 2 3 2 1 2 2 3 4 7 9 9 9
3 3 3 3 3 3 4 5 5 4 3 3 3 3 3 3 3 3 3 2 3 4 5 5 4 4 3 2 2 3 3 2 2 1 2 2 2 3 2 5 8 9 8
3 3 3 3 3 3 5 5 5 3 3 3 3 2 2 2 3 3 2 2 3 3 3 6 6 5 3 3 2 1 1 1 2 2 1 2 2 1 2 2 5 8 8
3 2 2 3 3 3 4 5 5 3 3 3 2 2 2 2 3 2 3 3 3 3 2 2 2 3 4 4 5 4 4 3 2 2 2 2 2 1 1 1 2 4 5
Wind_Direction
87 87 87 85 88 92 91 85 80 70 61 58 64 66 68 81 88 85 83 83 82 81 81 80 77 75 73 73 75 77 77 80 80 78 75 75 80 83 81 79 79 77 77
89 85 81 74 76 88 98 100 98 87 75 69 60 56 57 72 93 98 93 86 83 82 80 79 78 75 73 73 73 73 74 77 79 77 77 78 81 81 80 78 78 75 73
95 91 91 87 85 82 86 89 89 95 97 89 78 62 55 63 82 91 100 101 91 83 82 78 76 76 75 72 73 76 75 75 76 78 78 79 78 77 77 76 78 75 72
90 85 88 84 94 84 81 88 98 91 84 80 75 66 62 60 74 90 93 97 99 93 87 82 79 76 75 73 73 76 76 75 75 81 83 82 79 78 80 78 77 73 71
94 86 89 102 100 88 82 90 84 96 96 89 84 72 64 58 65 83 90 96 105 111 105 95 86 79 75 72 70 74 78 77 75 79 86 86 83 80 84 82 79 74 71
96 96 92 87 86 81 76 84 88 85 102 115 98 80 63 55 52 58 72 77 85 98 107 106 100 86 77 72 72 74 77 78 78 76 80 82 83 81 82 83 81 75 73
96 98 88 82 82 93 101 106 105 101 90 109 103 84 31 57 81 71 76 76 79 88 98 111 117 109 91 77 71 74 75 81 85 81 81 82 81 80 80 83 81 75 76
89 104 107 103 93 85 80 88 93 108 145 175 134 128 105 13 0 91 100 117 106 86 79 101 107 110 111 98 83 77 73 79 91 86 84 84 81 77 78 81 78 74 73
95 90 99 117 131 124 113 114 128 116 168 283 10 122 144 173 208 9 56 82 97 101 79 78 96 101 110 108 101 87 78 72 86 87 84 82 83 79 77 85 82 74 69
116 111 105 119 129 124 136 173 135 139 128 229 313 324 177 138 144 170 335 42 77 99 112 75 76 89 96 104 106 104 95 79 84 89 89 88 88 84 78 82 86 77 70
156 157 156 156 153 149 161 150 130 161 158 183 212 312 349 354 192 151 181 235 21 63 99 92 80 88 105 111 115 116 115 100 87 86 86 91 90 90 86 88 85 77 69
169 170 162 153 145 150 150 149 149 158 179 198 218 218 253 265 254 138 173 191 183 217 143 104 111 112 112 115 125 130 131 126 111 94 90 84 88 90 95 93 87 78 71
174 177 172 170 160 156 158 162 163 185 201 211 227 250 17 342 340 88 134 180 178 199 164 161 160 143 134 128 137 145 149 147 142 131 115 96 90 82 86 93 86 71 67
180 175 172 171 168 169 172 161 166 204 195 207 203 149 80 327 9 49 149 151 181 234 182 189 171 154 147 145 157 159 159 159 158 155 146 135 123 107 83 96 94 62 51
182 173 170 175 174 174 178 171 176 202 187 205 189 163 165 210 303 340 9 153 164 199 232 196 183 183 155 153 168 168 163 171 171 172 172 176 182 190 198 193 193 169 112
178 179 180 178 180 182 181 174 174 199 184 184 184 179 190 180 180 184 254 280 230 183 202 205 193 178 164 164 180 175 174 172 177 178 179 185 196 203 207 202 199 191 209
185 189 192 191 189 188 184 177 194 198 189 202 210 194 193 187 189 189 190 233 284 165 186 234 184 167 155 167 168 182 174 167 178 189 189 194 200 202 206 206 202 199 203
186 197 199 195 200 197 190 188 203 201 201 209 220 200 195 193 191 198 194 214 237 226 169 199 219 189 183 181 176 202 185 179 183 193 196 199 203 201 200 201 199 198 203
190 207 206 202 201 201 204 203 202 203 204 205 209 211 205 190 196 194 199 208 223 244 168 173 213 210 213 193 184 212 204 185 192 192 199 205 208 207 204 204 204 205 210
186 213 209 199 205 209 214 218 215 211 209 207 205 210 209 197 194 189 196 194 194 210 194 172 206 218 224 226 182 202 230 232 219 188 199 207 211 212 213 211 209 209 214
210 214 210 204 210 208 218 218 213 214 224 226 213 205 188 166 153 169 181 182 180 197 205 196 219 236 232 216 216 216 221 236 237 186 197 213 203 204 211 216 214 214 216
211 212 216 205 212 220 204 189 195 209 211 217 225 214 181 167 164 161 172 176 173 192 207 207 227 228 232 217 215 222 220 207 262 250 185 229 187 198 202 204 209 212 214
202 207 212 203 203 214 206 191 192 198 215 214 212 219 219 202 185 189 196 203 209 220 216 203 213 229 225 228 215 232 229 212 225 234 169 237 222 223 212 210 206 209 213
200 204 214 209 203 217 207 200 202 204 228 221 213 218 207 199 205 201 203 200 218 234 226 211 210 221 218 212 193 211 221 237 254 251 151 215 232 234 224 204 206 206 210
211 205 203 207 200 209 205 201 197 198 213 212 209 223 223 199 187 188 182 216 235 241 215 193 198 203 213 222 205 202 234 218 259 257 211 184 222 235 238 217 204 208 212
207 204 202 198 190 198 202 195 188 186 202 209 206 210 218 201 188 169 180 204 230 240 228 220 221 234 234 235 224 211 208 214 223 247 236 182 203 165 265 253 187 206 219
Height
1532 1532 1532 1533 1534 1534 1535 1535 1536 1537 1538 1538 1539 1540 1541 1541 1541 1541 1541 1541 1541 1541 1541 1540 1540 1540 1540 1541 1541 1541 1541 1541 1541 1542 1542 1542 1542 1542 1543 1544 1544 1544 1545
1532 1533 1533 1534 1535 1535 1536 1537 1537 1538 1539 1539 1540 1541 1541 1542 1542 1542 1542 1542 1542 1542 1542 1541 1541 1541 1541 1541 1541 1541 1541 1542 1542 1542 1542 1542 1542 1543 1543 1544 1544 1544 1544
1533 1534 1534 1535 1536 1536 1537 1537 1538 1539 1539 1540 1541 1541 1542 1543 1543 1543 1543 1543 1543 1543 1543 1542 1542 1542 1542 1542 1542 1542 1542 1542 1542 1542 1542 1542 1543 1543 1543 1543 1544 1544 1544
1533 1534 1534 1535 1536 1537 1537 1538 1539 1540 1540 1541 1542 1542 1543 1543 1544 1544 1544 1544 1544 1544 1543 1543 1543 1543 1542 1542 1542 1542 1542 1542 1542 1542 1543 1543 1543 1543 1543 1543 1543 1543 1543
1533 1534 1535 1535 1536 1537 1538 1539 1539 1540 1541 1541 1542 1543 1544 1544 1544 1545 1545 1545 1545 1544 1544 1544 1544 1543 1543 1543 1542 1542 1542 1542 1542 1543 1543 1543 1543 1543 1543 1543 1543 1543 1543
1533 1534 1535 1535 1536 1537 1537 1538 1539 1540 1541 1542 1543 1543 1544 1544 1545 1545 1545 1546 1545 1545 1545 1544 1544 1544 1544 1543 1543 1542 1542 1543 1543 1543 1543 1543 1543 1543 1543 1543 1543 1543 1543
1533 1534 1534 1535 1536 1537 1537 1538 1539 1540 1541 1542 1543 1544 1544 1545 1545 1546 1546 1546 1546 1546 1545 1545 1545 1544 1544 1544 1543 1543 1543 1543 1543 1543 1543 1543 1543 1543 1543 1543 1543 1543 1543
1533 1534 1534 1535 1535 1536 1537 1538 1539 1540 1541 1542 1543 1543 1544 1546 1546 1546 1546 1546 1546 1546 1546 1546 1545 1545 1544 1544 1543 1543 1543 1543 1543 1543 1543 1543 1543 1543 1543 1543 1543 1543 1543
1533 1533 1534 1535 1535 1536 1536 1537 1538 1539 1540 1541 1542 1544 1544 1544 1545 1546 1546 1546 1546 1546 1546 1546 1545 1545 1544 1544 1543 1543 1543 1542 1542 1542 1542 1542 1543 1542 1542 1542 1542 1543 1542
1532 1533 1533 1534 1535 1536 1536 1537 1537 1538 1539 1540 1541 1542 1543 1543 1544 1545 1546 1545 1545 1545 1545 1545 1545 1544 1544 1543 1543 1543 1542 1542 1542 1542 1542 1542 1542 1542 1542 1542 1542 1542 1542
1531 1532 1533 1533 1534 1535 1535 1536 1537 1538 1538 1539 1540 1541 1542 1542 1543 1543 1544 1544 1544 1544 1544 1544 1544 1544 1543 1543 1542 1542 1542 1542 1541 1541 1541 1541 1541 1541 1542 1542 1542 1542 1542
1530 1531 1532 1533 1533 1534 1534 1535 1536 1537 1537 1538 1539 1540 1540 1541 1541 1542 1542 1542 1543 1543 1543 1543 1543 1543 1542 1542 1541 1541 1541 1541 1541 1541 1541 1541 1540 1540 1541 1541 1541 1541 1542
1529 1530 1530 1531 1532 1532 1533 1534 1535 1535 1536 1537 1538 1538 1539 1540 1540 1541 1541 1541 1541 1542 1542 1541 1541 1541 1541 1541 1540 1540 1540 1540 1540 1540 1539 1540 1540 1540 1540 1540 1540 1541 1541
1527 1528 1529 1529 1530 1531 1532 1533 1533 1534 1535 1536 1536 1537 1537 1538 1538 1539 1539 1540 1540 1540 1540 1540 1540 1540 1540 1539 1539 1538 1538 1538 1538 1538 1538 1538 1539 1539 1539 1539 1539 1539 1540
1525 1526 1527 1528 1528 1529 1530 1531 1531 1532 1533 1534 1534 1535 1535 1536 1536 1537 1537 1538 1539 1538 1539 1538 1538 1538 1538 1538 1537 1537 1537 1537 1537 1537 1537 1537 1537 1537 1538 1538 1538 1538 1538
1523 1524 1525 1526 1527 1527 1528 1529 1529 1530 1531 1531 1532 1532 1533 1533 1534 1535 1535 1536 1536 1537 1537 1536 1536 1537 1537 1536 1536 1536 1535 1535 1535 1535 1535 1535 1535 1536 1536 1536 1537 1537 1537
1521 1522 1523 1524 1524 1525 1526 1526 1527 1528 1528 1529 1530 1530 1531 1531 1532 1532 1533 1534 1534 1535 1534 1534 1535 1535 1535 1535 1535 1534 1534 1534 1533 1534 1534 1534 1534 1534 1534 1535 1535 1535 1536
1518 1519 1520 1521 1522 1523 1523 1524 1524 1525 1526 1526 1527 1528 1528 1529 1529 1530 1530 1531 1532 1532 1533 1532 1532 1533 1533 1533 1533 1533 1532 1532 1532 1532 1532 1532 1532 1532 1532 1533 1533 1533 1534
1515 1516 1517 1518 1519 1520 1520 1521 1522 1522 1523 1524 1524 1525 1526 1526 1527 1527 1528 1528 1529 1529 1530 1530 1530 1531 1531 1531 1531 1531 1531 1530 1530 1530 1530 1530 1530 1530 1530 1531 1531 1532 1532
1512 1513 1514 1515 1516 1516 1517 1518 1519 1519 1520 1521 1521 1522 1523 1523 1524 1524 1525 1525 1526 1526 1527 1527 1528 1528 1528 1529 1529 1529 1528 1528 1528 1528 1528 1528 1528 1528 1528 1528 1529 1529 1530
1509 1510 1511 1512 1512 1513 1514 1514 1515 1516 1517 1517 1518 1519 1519 1520 1521 1521 1522 1522 1522 1523 1523 1524 1525 1525 1525 1526 1526 1526 1526 1526 1526 1526 1525 1525 1526 1526 1526 1526 1527 1527 1527
1505 1506 1507 1508 1509 1509 1510 1511 1512 1512 1513 1514 1515 1515 1516 1517 1517 1518 1518 1518 1519 1520 1520 1521 1521 1522 1522 1522 1523 1523 1523 1523 1523 1523 1523 1523 1523 1523 1523 1524 1524 1524 1525
1502 1503 1504 1504 1505 1505 1507 1507 1508 1509 1510 1510 1511 1512 1513 1513 1514 1514 1514 1515 1515 1516 1517 1517 1517 1518 1518 1519 1520 1520 1520 1520 1519 1520 1520 1519 1520 1520 1521 1521 1521 1522 1522
1498 1499 1499 1500 1501 1502 1503 1504 1505 1505 1506 1507 1508 1508 1509 1509 1510 1511 1511 1511 1512 1512 1513 1513 1514 1514 1515 1516 1516 1517 1516 1516 1516 1516 1517 1516 1516 1517 1517 1517 1518 1518 1518
1494 1495 1495 1496 1497 1498 1499 1500 1501 1501 1502 1503 1504 1505 1506 1506 1507 1507 1507 1507 1508 1508 1509 1509 1510 1510 1511 1511 1512 1512 1512 1512 1512 1512 1513 1513 1513 1513 1514 1514 1514 1515 1515
1491 1491 1492 1493 1493 1494 1495 1496 1497 1497 1498 1499 1500 1501 1502 1503 1503 1503 1504 1504 1504 1504 1505 1505 1506 1506 1506 1506 1507 1508 1508 1508 1508 1508 1508 1509 1509 1509 1509 1510 1511 1511 1511